Home > Weather > Lilienfeld > Past weeks

Flag for Austria Weather for the Past 2 Weeks in Lilienfeld, Lower Austria, Austria

Now
38 °F

Chilly.


Feels Like: 38 °F
Forecast: 29 / 36 °F
Wind: 1 mph from West

Location: Amstetten

Current Time: Feb 15, 2016 at 1:26:42 AM

Latest Report: Feb 15, 2016 at 12:00 AM


Visibility: N/A

Pressure: 29.47 "Hg

Humidity: 93%

Dew point: 37 °F

Location of LilienfeldLocation

Historic Weather in Lilienfeld — Graph

°F

Lilienfeld Temperature Yesterday

Maximum temperature yesterday: 40 °F (at 4:00 PM)
Minimum temperature yesterday: 29 °F (at 6:00 AM)
Average temperature yesterday: 35 °F

High & Low Weather Summary for the Past Weeks

 TemperatureHumidityPressure
High57 °F (Feb 9, 3:00 PM)100% (Jan 31, 12:00 AM)30.43 "Hg (Jan 31, 12:00 AM)
Low24 °F (Feb 12, 7:00 AM)55% (Feb 9, 5:00 PM)29.23 "Hg (Feb 14, 5:00 PM)
Average40 °F85%29.87 "Hg
* Reported Midnight between Jan 30 and Jan 31 — Midnight between Feb 14 and Feb 15, Lilienfeld, Weather by CustomWeather, © 2016

Note: Actual official high and low records may vary slightly from our data, if they occured in-between our weather recording intervals... More about our weather records

Advertising

Lilienfeld Weather History for the Previous 24 Hours

 ConditionsComfort  
Time TempWeatherWind HumidityBarometerVisibility
12:00 AM
Mon, Feb 15
38 °FChilly.1 mph93%29.47 "HgN/A
10:00 PM
Sun, Feb 14
38 °FChilly.2 mph93%29.41 "HgN/A
9:00 PM38 °FChilly.2 mph94%29.35 "HgN/A
8:00 PM40 °FChilly.1 mph90%29.29 "HgN/A
7:00 PM40 °FQuite cool.3 mph89%29.26 "HgN/A
6:00 PM40 °FQuite cool.5 mph89%29.26 "HgN/A
5:00 PM40 °FQuite cool.5 mph86%29.23 "HgN/A
4:00 PM40 °FQuite cool.3 mph93%29.26 "HgN/A
3:00 PM40 °FChilly.5 mph92%29.26 "HgN/A
2:00 PM38 °FChilly.5 mph95%29.26 "HgN/A
1:00 PM35 °FChilly.3 mph100%29.29 "HgN/A
12:00 PM33 °FChilly.3 mph100%29.29 "HgN/A
11:00 AM32 °FChilly.No wind98%29.32 "HgN/A
10:00 AM31 °FChilly.1 mph100%29.32 "HgN/A
9:00 AM31 °FChilly.3 mph100%29.32 "HgN/A
8:00 AM31 °FChilly.3 mph100%29.35 "HgN/A
7:00 AM31 °FChilly.3 mph100%29.35 "HgN/A
6:00 AM29 °FChilly.2 mph100%29.35 "HgN/A
4:00 AM30 °FChilly.2 mph100%29.32 "HgN/A
2:00 AM32 °FChilly.1 mph100%29.32 "HgN/A
1:00 AM31 °FChilly.2 mph98%29.32 "HgN/A
Weather by CustomWeather, © 2016

See weather overviewHow to use our weather pages